Theta_e
287 287 287 287 286 286 287 287 287 286 286 286 286 286 286 286 286 286 286 286 285 285
286 285 285 285 285 286 286 286 284 284 284 285 285 285 285 285 284 285 285 285 284 284
285 284 283 283 282 283 284 284 283 283 283 283 284 284 284 284 285 284 284 284 283 283
283 283 282 281 282 282 282 282 282 282 282 282 282 283 283 283 284 283 283 284 283 282
281 280 280 280 280 281 281 282 282 282 281 281 282 283 282 282 283 283 282 282 282 281
278 279 279 279 279 280 280 281 281 281 281 281 282 282 283 283 283 283 282 281 279 279
277 277 278 279 278 278 279 279 280 281 281 282 282 282 283 283 281 281 281 280 279 279
275 276 275 275 276 277 277 279 280 281 281 282 282 283 282 281 280 280 280 280 279 279
273 273 273 275 275 276 276 276 278 279 279 280 281 282 282 282 281 281 280 280 281 281
276 276 276 276 276 275 275 277 276 276 278 279 280 281 282 282 283 283 282 281 281 281
275 275 276 276 276 277 278 277 278 278 278 278 279 281 282 282 282 282 282 282 282 282
273 273 274 274 275 276 277 277 278 278 279 278 279 281 282 282 282 282 282 282 282 282
273 272 272 274 274 275 276 276 277 277 278 279 279 280 281 282 282 281 281 281 281 281
272 272 273 273 274 274 274 274 275 275 276 276 277 278 280 281 280 280 281 281 281 281
Wind_Speed
7 5 5 6 5 5 5 5 4 5 6 6 6 6 5 5 5 4 4 5 4 4
6 7 6 6 6 6 6 5 5 5 6 6 6 5 5 5 4 4 4 4 5 5
6 6 5 5 7 7 5 6 6 7 7 7 7 6 6 6 5 6 5 5 6 6
6 6 6 7 7 7 6 7 7 8 8 8 8 7 7 7 7 7 7 7 6 6
6 7 6 7 7 7 7 7 8 8 9 9 8 8 8 8 7 8 8 7 6 4
6 7 7 7 7 7 7 8 8 9 10 10 9 8 8 9 8 8 8 7 6 5
6 6 7 7 7 7 7 7 9 10 10 9 9 9 9 8 8 8 8 8 8 7
4 5 5 7 7 7 7 8 9 10 10 9 9 8 9 8 9 9 9 9 8 9
4 4 5 6 7 7 7 7 9 10 11 11 8 14 16 13 9 10 9 9 9 10
3 3 4 5 6 7 8 7 9 10 11 12 11 15 17 17 9 9 10 11 10 9
4 5 5 5 5 6 6 8 8 9 10 11 10 16 17 17 12 11 13 13 11 11
5 5 5 6 6 5 6 7 8 8 9 10 11 14 15 14 11 12 14 12 13 13
5 6 6 6 6 4 5 7 6 8 9 10 11 12 14 13 8 11 9 11 12 15
5 6 5 6 6 5 5 6 7 7 7 8 9 10 14 16 10 9 9 8 8 7
Wind_Direction
231 239 247 250 252 254 247 243 239 238 250 251 246 244 244 243 239 239 245 249 242 257
234 241 251 253 256 255 252 231 221 225 240 248 244 249 258 247 238 241 244 245 238 243
237 240 242 246 247 245 242 237 229 229 235 240 236 232 233 238 232 236 238 239 236 238
244 242 239 244 241 244 237 234 237 238 238 237 237 231 232 237 240 234 239 233 237 245
247 241 235 245 247 243 240 232 238 239 237 235 232 232 231 234 227 228 236 234 239 241
241 243 241 245 248 244 238 239 237 237 236 233 232 230 229 231 229 223 233 235 235 240
242 241 247 248 246 242 239 240 242 240 239 234 233 229 227 219 224 230 234 234 232 235
248 245 253 256 251 244 242 244 242 245 244 237 232 226 219 221 231 235 238 237 234 233
276 249 238 251 260 258 247 245 249 247 245 244 237 235 232 228 232 237 242 249 242 236
329 293 275 252 246 252 255 251 244 245 244 245 246 243 238 241 244 245 243 244 244 244
330 308 301 288 268 264 256 251 251 249 243 246 248 246 245 247 247 247 248 246 244 245
322 308 303 294 289 284 275 269 260 257 260 256 258 255 254 251 248 247 250 247 246 244
316 307 300 295 294 291 284 282 280 277 272 268 271 268 264 259 250 249 249 251 249 241
319 309 296 301 301 297 296 287 286 282 279 276 272 274 269 262 255 255 260 256 255 247